Location: Newark
(43.4306°N, 0.3089°E)
Time: 00:14:11
(UTC+00:00)

Vanguard 3 - Pass Details

Date: 26 August 2019
Orbit: 508 x 3263 km, 33.4° (Epoch: 21 September)

Event Time Altitude Azimuth Distance (km) Brightness Sun altitude
Rises 18:07:05 0° 257° (WSW) 4,561 12.5 5.9°
Reaches altitude 10° 18:11:08 10° 248° (WSW) 3,106 11.3 5.2°
Maximum altitude 18:17:08 30° 190° (S) 1,452 8.5 4.1°
Drops below altitude 10° 18:21:11 10° 129° (SE) 2,047 8.7 3.4°
Sets 18:23:20 0° 117° (ESE) 2,792 9.3 3.0°
